Leonardtown, MD

4:47 PM EDT on March 27, 2017 (GMT -0400)
Leonardtown

Weather History for K2W6 - November, 2013

Change the Weather History Date:

Monday, November 25, 2013

  Actual Average (KNHK) Record (KNHK)
Temperature  
Mean Temperature 27 °F -  
Max Temperature 35 °F 53 °F 68 °F (2001)
Min Temperature 19 °F 36 °F 23 °F (2005)
Degree Days  
Heating Degree Days 38    
Moisture  
Dew Point 9 °F    
Average Humidity 45    
Maximum Humidity 68    
Minimum Humidity 28    
Precipitation  
Precipitation 0.00 in - - ()
Sea Level Pressure  
Sea Level Pressure 30.51 in    
Wind  
Wind Speed 4 mph (SW)    
Max Wind Speed 8 mph    
Max Gust Speed -    
Visibility 10 miles    
Events      
Averages and records for this station are not official NWS values.
T = Trace of Precipitation, MM = Missing Value Source: NWS Daily Summary

Daily Weather History Graph

Daily Weather History Graph

Search for Another Location

Airport or City:

Trip Planner

Search our weather history database for the weather conditions in past years. The results will help you decide how hot, cold, wet, or windy it might be!

Date:

Astronomy

Nov. 25, 2013 Rise Set
Actual Time 6:58 AM EST 4:47 PM EST
Civil Twilight 6:29 AM EST 5:16 PM EST
Nautical Twilight 5:57 AM EST 5:49 PM EST
Astronomical Twilight 5:25 AM EST 6:20 PM EST
Moon No Moon Rise 12:17 PM EST (11/25)
Length of Visible Light 10h 47m
Length of Day
9h 49m
Waning Gibbous, 51% of the Moon is Illuminated
Nov 25
Waning Gibbous
Nov 25
Last Quarter
Dec 2
New
Dec 9
First Quarter
Dec 17
Full

Hourly Weather History & Observations

Time (EST) Temp. Windchill Dew Point Humidity Pressure Visibility Wind Dir Wind Speed Gust Speed Precip Events Conditions
12:19 AM 24.8 °F 19.1 °F 6.8 °F 46% 30.54 in 10.0 mi West 4.6 mph - N/A   Clear
12:39 AM 24.8 °F 17.9 °F 6.8 °F 46% 30.54 in 10.0 mi West 5.8 mph - N/A   Clear
12:59 AM 23.0 °F 17.0 °F 6.8 °F 50% 30.53 in 10.0 mi West 4.6 mph - N/A   Clear
1:19 AM 23.0 °F 15.8 °F 8.6 °F 54% 30.54 in 10.0 mi West 5.8 mph - N/A   Clear
1:39 AM 23.0 °F 17.0 °F 8.6 °F 54% 30.53 in 10.0 mi West 4.6 mph - N/A   Clear
1:59 AM 23.0 °F 18.4 °F 8.6 °F 54% 30.53 in 10.0 mi West 3.5 mph - N/A   Clear
2:19 AM 23.0 °F 18.4 °F 8.6 °F 54% 30.53 in 10.0 mi West 3.5 mph - N/A   Clear
2:39 AM 23.0 °F 18.4 °F 8.6 °F 54% 30.52 in 10.0 mi WNW 3.5 mph - N/A   Clear
2:59 AM 21.2 °F 16.4 °F 8.6 °F 58% 30.53 in 10.0 mi West 3.5 mph - N/A   Clear
3:19 AM 21.2 °F - 8.6 °F 58% 30.53 in 10.0 mi Calm Calm - N/A   Clear
3:39 AM 21.2 °F 16.4 °F 8.6 °F 58% 30.54 in 10.0 mi WSW 3.5 mph - N/A   Clear
4:00 AM 19.4 °F 11.5 °F 10.4 °F 68% 30.55 in 10.0 mi West 5.8 mph - N/A   Clear
4:20 AM 21.2 °F 14.9 °F 8.6 °F 58% 30.55 in 10.0 mi West 4.6 mph - N/A   Clear
4:40 AM 21.2 °F 14.9 °F 8.6 °F 58% 30.56 in 10.0 mi WNW 4.6 mph - N/A   Clear
5:00 AM 21.2 °F 14.9 °F 10.4 °F 63% 30.55 in 10.0 mi West 4.6 mph - N/A   Clear
5:20 AM 21.2 °F 14.9 °F 8.6 °F 58% 30.56 in 10.0 mi West 4.6 mph - N/A   Clear
5:40 AM 21.2 °F 14.9 °F 8.6 °F 58% 30.56 in 10.0 mi West 4.6 mph - N/A   Clear
6:00 AM 21.2 °F - 8.6 °F 58% 30.56 in 10.0 mi Calm Calm - N/A   Clear
6:20 AM 21.2 °F - 8.6 °F 58% 30.57 in 10.0 mi Calm Calm - N/A   Clear
6:40 AM 21.2 °F - 8.6 °F 58% 30.56 in 10.0 mi Calm Calm - N/A   Clear
7:00 AM 21.2 °F 16.4 °F 10.4 °F 63% 30.57 in 10.0 mi West 3.5 mph - N/A   Clear
7:20 AM 21.2 °F 13.6 °F 10.4 °F 63% 30.58 in 10.0 mi West 5.8 mph - N/A   Clear
7:40 AM 21.2 °F 16.4 °F 12.2 °F 68% 30.59 in 10.0 mi West 3.5 mph - N/A   Clear
8:00 AM 23.0 °F 18.4 °F 10.4 °F 59% 30.60 in 10.0 mi West 3.5 mph - N/A   Clear
8:20 AM 24.8 °F 19.1 °F 10.4 °F 54% 30.60 in 10.0 mi West 4.6 mph - N/A   Clear
8:40 AM 26.6 °F 21.2 °F 10.4 °F 51% 30.61 in 10.0 mi West 4.6 mph - N/A   Clear
9:00 AM 26.6 °F 20.0 °F 8.6 °F 47% 30.60 in 10.0 mi WNW 5.8 mph - N/A   Clear
9:20 AM 28.4 °F 22.2 °F 8.6 °F 43% 30.60 in 10.0 mi West 5.8 mph - N/A   Clear
9:40 AM 28.4 °F 23.3 °F 8.6 °F 43% 30.60 in 10.0 mi WNW 4.6 mph - N/A   Clear
10:00 AM 28.4 °F 24.6 °F 6.8 °F 40% 30.60 in 10.0 mi WNW 3.5 mph - N/A   Clear
10:20 AM 30.2 °F 26.7 °F 6.8 °F 37% 30.59 in 10.0 mi WNW 3.5 mph - N/A   Clear
10:40 AM 30.2 °F - 6.8 °F 37% 30.58 in 10.0 mi Calm Calm - N/A   Clear
11:00 AM 32.0 °F - 6.8 °F 35% 30.56 in 10.0 mi Calm Calm - N/A   Clear
11:20 AM 32.0 °F - 6.8 °F 35% 30.57 in 10.0 mi Calm Calm - N/A   Clear
11:40 AM 32.0 °F - 5.0 °F 32% 30.55 in 10.0 mi Calm Calm - N/A   Clear
12:00 PM 32.0 °F - 5.0 °F 32% 30.55 in 10.0 mi Calm Calm - N/A   Clear
12:20 PM 33.8 °F - 5.0 °F 30% 30.53 in 10.0 mi Calm Calm - N/A   Clear
12:41 PM 33.8 °F 29.6 °F 5.0 °F 30% 30.51 in 10.0 mi South 4.6 mph - N/A   Clear
1:01 PM 33.8 °F 30.8 °F 6.8 °F 32% 30.50 in 10.0 mi SSW 3.5 mph - N/A   Clear
1:21 PM 33.8 °F 27.7 °F 6.8 °F 32% 30.49 in 10.0 mi SW 6.9 mph - N/A   Clear
1:41 PM 35.6 °F 31.7 °F 5.0 °F 28% 30.49 in 10.0 mi SSW 4.6 mph - N/A   Clear
2:01 PM 35.6 °F 29.2 °F 6.8 °F 30% 30.49 in 10.0 mi SW 8.1 mph - N/A   Clear
2:21 PM 35.6 °F 31.7 °F 6.8 °F 30% 30.48 in 10.0 mi SW 4.6 mph - N/A   Clear
2:41 PM 35.6 °F 30.7 °F 8.6 °F 33% 30.48 in 10.0 mi SSW 5.8 mph - N/A   Clear
3:01 PM 35.6 °F 31.7 °F 8.6 °F 33% 30.48 in 10.0 mi SSW 4.6 mph - N/A   Clear
3:21 PM 35.6 °F 29.9 °F 10.4 °F 35% 30.47 in 10.0 mi SW 6.9 mph - N/A   Clear
3:41 PM 35.6 °F 29.2 °F 10.4 °F 35% 30.47 in 10.0 mi South 8.1 mph - N/A   Clear
4:01 PM 33.8 °F 27.7 °F 14.0 °F 44% 30.47 in 10.0 mi South 6.9 mph - N/A   Clear
4:21 PM 33.8 °F 29.6 °F 12.2 °F 41% 30.47 in 10.0 mi SSE 4.6 mph - N/A   Clear
4:41 PM 33.8 °F - 14.0 °F 44% 30.46 in 10.0 mi Calm Calm - N/A   Clear
5:01 PM 32.0 °F - 14.0 °F 48% 30.45 in 10.0 mi Calm Calm - N/A   Clear
5:21 PM 32.0 °F 28.7 °F 12.2 °F 44% 30.44 in 10.0 mi SSE 3.5 mph - N/A   Clear
5:41 PM 32.0 °F 28.7 °F 8.6 °F 38% 30.45 in 10.0 mi South 3.5 mph - N/A   Clear
6:01 PM 32.0 °F - 8.6 °F 38% 30.45 in 10.0 mi Calm Calm - N/A   Clear
6:21 PM 32.0 °F 28.7 °F 8.6 °F 38% 30.45 in 10.0 mi South 3.5 mph - N/A   Clear
6:41 PM 32.0 °F 27.5 °F 10.4 °F 41% 30.45 in 10.0 mi SSW 4.6 mph - N/A   Clear
7:01 PM 32.0 °F 26.4 °F 10.4 °F 41% 30.44 in 10.0 mi SSW 5.8 mph - N/A   Clear
7:21 PM 32.0 °F 25.6 °F 10.4 °F 41% 30.45 in 10.0 mi SSW 6.9 mph - N/A   Clear
7:41 PM 32.0 °F 26.4 °F 12.2 °F 44% 30.45 in 10.0 mi SSW 5.8 mph - N/A   Clear
8:01 PM 32.0 °F 27.5 °F 10.4 °F 41% 30.45 in 10.0 mi SSW 4.6 mph - N/A   Clear
8:21 PM 32.0 °F 28.7 °F 12.2 °F 44% 30.44 in 10.0 mi SSW 3.5 mph - N/A   Clear
8:41 PM 32.0 °F 28.7 °F 12.2 °F 44% 30.42 in 10.0 mi South 3.5 mph - N/A   Clear
9:01 PM 32.0 °F 28.7 °F 12.2 °F 44% 30.42 in 10.0 mi SSE 3.5 mph - N/A   Clear
9:22 PM 33.8 °F 27.0 °F 10.4 °F 38% 30.41 in 10.0 mi South 8.1 mph - N/A   Clear
9:42 PM 33.8 °F 28.6 °F 12.2 °F 41% 30.40 in 10.0 mi South 5.8 mph - N/A   Mostly Cloudy
10:02 PM 33.8 °F 28.6 °F 12.2 °F 41% 30.40 in 10.0 mi SSW 5.8 mph - N/A   Scattered Clouds
10:22 PM 33.8 °F 29.6 °F 12.2 °F 41% 30.39 in 10.0 mi South 4.6 mph - N/A   Mostly Cloudy
10:42 PM 33.8 °F 28.6 °F 14.0 °F 44% 30.39 in 10.0 mi SW 5.8 mph - N/A   Scattered Clouds
11:02 PM 35.6 °F 30.7 °F 14.0 °F 41% 30.40 in 10.0 mi SSW 5.8 mph - N/A   Scattered Clouds
11:22 PM 35.6 °F 31.7 °F 14.0 °F 41% 30.40 in 10.0 mi SW 4.6 mph - N/A   Mostly Cloudy
11:42 PM 35.6 °F 29.9 °F 14.0 °F 41% 30.40 in 10.0 mi SSW 6.9 mph - N/A   Overcast